DW7322 Weather Reports


Display with metric or nautical units.
time (UTC)temp
F
wind
direction
speed
MPH
gust
MPH
rain 1hr
in
rain 24hr
in
rain mn
in
humidity
%
barometer
mb
20260906030038 72 17 0.0 0.0 0.00 0.00 0.00 88 1015.5
20260906024527 72 164 0.0 0.0 0.00 0.00 0.00 88 1015.5
20260906023056 72 8 0.0 0.0 0.00 0.00 0.00 87 1015.5
20260906021504 72 112 0.0 0.0 0.00 0.00 0.00 87 1015.4
20260906020004 72 115 0.0 1.0 0.00 0.00 0.00 87 1015.4
20260906014531 72 8 0.0 2.0 0.00 0.00 0.00 87 1015.3
20260906013039 72 356 0.0 1.0 0.00 0.00 0.00 87 1015.4
20260906011501 72 49 0.0 1.0 0.00 0.00 0.00 87 1015.4
20260906010116 73 27 0.0 1.0 0.00 0.00 0.00 86 1015.3
20260906004601 74 39 0.0 0.0 0.00 0.00 0.00 85 1015.2
20260906003022 75 80 0.0 0.0 0.00 0.00 0.00 84 1014.9
20260906001542 76 8 0.0 0.0 0.00 0.00 0.00 84 1014.7
20260906000101 76 131 0.0 0.0 0.00 0.00 0.00 83 1014.6
20260905234542 78 354 0.0 1.0 0.00 0.00 0.00 82 1014.2
20260905233008 79 342 0.0 0.0 0.00 0.00 0.00 80 1014.2
20260905231536 79 328 0.0 0.0 0.00 0.00 0.00 78 1014.1
20260905230056 81 139 0.0 1.0 0.00 0.00 0.00 76 1014.0
20260905224548 80 294 0.0 0.0 0.00 0.00 0.00 75 1013.7
20260905223015 80 12 0.0 0.0 0.00 0.00 0.00 75 1013.6
20260905221539 81 14 0.0 0.0 0.00 0.00 0.00 73 1013.6
20260905220057 81 312 0.0 0.0 0.00 0.00 0.00 74 1013.6
20260905214551 84 71 0.0 0.0 0.00 0.00 0.00 71 1013.5
20260905213017 83 135 0.0 0.0 0.00 0.00 0.00 75 1013.7
20260905211542 82 229 0.0 0.0 0.00 0.00 0.00 76 1013.7
20260905210111 82 16 0.0 0.0 0.00 0.00 0.00 77 1013.8
20260905204557 82 280 0.0 0.0 0.00 0.00 0.00 77 1014.0
20260905203021 81 4 0.0 0.0 0.00 0.00 0.00 77 1014.2
20260905201542 80 6 0.0 0.0 0.00 0.00 0.00 80 1014.1
20260905200131 80 52 0.0 1.0 0.00 0.00 0.00 81 1014.2
20260905194554 81 38 0.0 0.0 0.00 0.00 0.00 78 1014.3
20260905193021 81 354 0.0 0.0 0.00 0.00 0.00 79 1014.1
20260905191544 83 1 0.0 0.0 0.00 0.00 0.00 77 1014.1
20260905190112 83 274 0.0 0.0 0.00 0.00 0.00 78 1014.1
20260905184602 84 68 0.0 0.0 0.00 0.00 0.00 76 1014.1
20260905184509 84 286 0.0 0.0 0.00 0.00 0.00 75 1014.1
20260905183025 84 286 0.0 0.0 0.00 0.00 0.00 75 1014.2
20260905181551 84 1 0.0 0.0 0.00 0.00 0.00 75 1014.2
20260905180116 84 349 0.0 0.0 0.00 0.00 0.00 77 1014.2
20260905174508 84 77 0.0 0.0 0.00 0.00 0.00 77 1014.0
20260905173039 85 274 0.0 0.0 0.00 0.00 0.00 77 1014.0
20260905171556 85 309 0.0 0.0 0.00 0.00 0.00 75 1014.1
20260905170111 85 4 0.0 0.0 0.00 0.00 0.00 76 1014.2
20260905164509 85 342 0.0 0.0 0.00 0.00 0.00 76 1014.3
20260905163024 84 244 0.0 0.0 0.00 0.00 0.00 77 1014.2
20260905161535 82 64 0.0 0.0 0.00 0.00 0.00 81 1014.3
20260905160059 81 83 0.0 0.0 0.00 0.00 0.00 83 1014.4
20260905154550 80 287 0.0 0.0 0.00 0.00 0.00 84 1014.4
20260905153057 80 213 0.0 0.0 0.00 0.00 0.00 84 1014.3
20260905151515 79 107 0.0 0.0 0.00 0.00 0.00 87 1014.1
20260905150001 76 53 0.0 1.0 0.00 0.00 0.00 90 1014.0
20260905144519 76 141 0.0 1.0 0.00 0.00 0.00 91 1013.6
20260905143030 75 148 0.0 1.0 0.00 0.00 0.00 92 1013.6
20260905141547 75 112 0.0 1.0 0.00 0.00 0.00 93 1013.7
20260905140113 74 1 0.0 0.0 0.00 0.00 0.00 93 1013.6
20260905134502 75 336 0.0 3.0 0.00 0.00 0.00 93 1013.4
20260905133029 75 92 0.0 1.0 0.00 0.00 0.00 93 1013.3
20260905131546 75 346 0.0 1.0 0.00 0.00 0.00 94 1013.5
20260905130057 75 79 0.0 1.0 0.00 0.00 0.00 94 1013.5
20260905124552 74 120 0.0 1.0 0.00 0.00 0.00 95 1012.9
20260905123104 74 332 0.0 0.0 0.00 0.00 0.00 95 1012.7
20260905123003 74 332 0.0 0.0 0.00 0.00 0.00 95 1012.6
20260905121519 74 332 0.0 0.0 0.00 0.00 0.00 95 1012.5
20260905120057 74 333 0.0 0.0 0.00 0.00 0.00 95 1012.4
20260905114537 74 332 0.0 0.0 0.00 0.00 0.00 95 1012.3
20260905113055 74 333 0.0 0.0 0.00 0.00 0.00 95 1012.0
20260905111510 73 275 0.0 0.0 0.00 0.00 0.00 95 1011.9
20260905110016 73 276 0.0 0.0 0.00 0.00 0.00 95 1011.5
20260905104532 73 274 0.0 0.0 0.00 0.00 0.00 95 1011.5
20260905103046 74 276 0.0 0.0 0.00 0.00 0.00 95 1011.7
20260905101510 74 276 0.0 0.0 0.00 0.00 0.00 95 1011.8
20260905100129 74 274 0.0 0.0 0.00 0.00 0.00 95 1011.7
20260905094528 74 276 0.0 0.0 0.00 0.00 0.00 94 1011.8
20260905093054 75 276 0.0 0.0 0.00 0.00 0.00 94 1011.7
20260905091509 75 274 0.0 0.0 0.00 0.00 0.00 94 1011.7
20260905090040 75 276 0.0 0.0 0.00 0.00 0.00 94 1011.7
20260905084532 75 274 0.0 0.0 0.00 0.00 0.00 94 1011.7
20260905083047 75 274 0.0 1.0 0.00 0.00 0.00 94 1011.8
20260905081510 75 275 0.0 0.0 0.00 0.00 0.00 94 1011.8
20260905080123 75 274 0.0 0.0 0.00 0.00 0.00 94 1011.7
20260905074519 75 276 0.0 0.0 0.00 0.00 0.00 94 1011.7
20260905073041 75 275 0.0 0.0 0.00 0.00 0.00 94 1011.8
20260905071511 75 274 0.0 0.0 0.00 0.00 0.00 94 1011.9
20260905070021 75 276 0.0 0.0 0.00 0.00 0.00 93 1012.0
20260905064539 76 275 0.0 0.0 0.00 0.00 0.00 93 1011.9
20260905063058 76 274 0.0 1.0 0.00 0.00 0.00 93 1012.1
20260905061522 76 241 0.0 0.0 0.00 0.00 0.00 93 1012.2
20260905060024 76 241 0.0 0.0 0.00 0.00 0.00 93 1012.2
20260905054549 77 241 0.0 0.0 0.00 0.00 0.00 93 1012.2
20260905053013 76 241 0.0 0.0 0.00 0.00 0.00 94 1012.0
20260905051545 77 241 0.0 0.0 0.00 0.00 0.00 94 1011.9
20260905044547 77 241 0.0 0.0 0.00 0.00 0.00 93 1011.9
20260905043018 77 241 0.0 0.0 0.00 0.00 0.00 93 1012.0
20260905041538 78 241 0.0 0.0 0.00 0.00 0.00 93 1012.0
20260905040104 78 241 0.0 0.0 0.00 0.00 0.00 92 1012.1
20260905034508 79 241 0.0 0.0 0.00 0.00 0.00 91 1012.3
20260905033029 79 241 0.0 0.0 0.00 0.00 0.00 91 1012.4
20260905031545 79 241 0.0 0.0 0.00 0.00 0.00 92 1012.6